Time,TemperatureF,DewpointF,PressureIn,WindDirection,WindDirectionDegrees,WindSpeedMPH,WindSpeedGustMPH,Humidity,HourlyPrecipIn,Conditions,Clouds,dailyrainin,SoftwareType,DateUTC
2013-01-24 00:02:00,4.6,-1.7,30.40,NNW,345,5.0,10.0,75,-99.99,,,0.00,1-wire,2013-01-24 06:02:00,
2013-01-24 00:07:00,4.4,-2.0,30.40,NNW,339,6.0,14.0,74,-99.99,,,0.00,1-wire,2013-01-24 06:07:00,
2013-01-24 00:12:00,4.3,-1.9,30.41,NNW,339,4.0,8.0,75,-99.99,,,0.00,1-wire,2013-01-24 06:12:00,
2013-01-24 00:17:00,4.3,-2.0,30.41,NNW,339,5.0,11.0,75,-99.99,,,0.00,1-wire,2013-01-24 06:17:00,
2013-01-24 00:22:00,4.1,-1.9,30.41,NNW,342,6.0,13.0,75,-99.99,,,0.00,1-wire,2013-01-24 06:22:00,
2013-01-24 00:27:00,4.2,-2.0,30.42,NNW,342,4.0,9.0,75,-99.99,,,0.00,1-wire,2013-01-24 06:27:00,
2013-01-24 00:32:00,3.9,-2.2,30.42,NNW,342,7.0,11.0,75,-99.99,,,0.00,1-wire,2013-01-24 06:32:00,
2013-01-24 00:37:00,4.0,-1.8,30.42,NNW,341,3.0,6.0,76,-99.99,,,0.00,1-wire,2013-01-24 06:37:00,
2013-01-24 00:42:00,3.8,-2.0,30.42,NNW,341,2.0,6.0,76,-99.99,,,0.00,1-wire,2013-01-24 06:42:00,
2013-01-24 00:47:00,3.7,-2.0,30.44,NNW,341,6.0,11.0,76,-99.99,,,0.00,1-wire,2013-01-24 06:47:00,
2013-01-24 00:52:00,3.5,-2.1,30.44,NNW,333,3.0,8.0,77,-99.99,,,0.00,1-wire,2013-01-24 06:52:00,
2013-01-24 00:57:00,3.4,-2.2,30.44,NNW,333,5.0,11.0,77,-99.99,,,0.00,1-wire,2013-01-24 06:57:00,
2013-01-24 01:02:00,3.3,-2.3,30.44,NNW,333,6.0,11.0,77,-99.99,,,0.00,1-wire,2013-01-24 07:02:00,
2013-01-24 01:07:00,3.1,-2.4,30.45,NNW,343,5.0,11.0,77,-99.99,,,0.00,1-wire,2013-01-24 07:07:00,
2013-01-24 01:12:00,3.2,-2.3,30.45,NNW,343,3.0,6.0,77,-99.99,,,0.00,1-wire,2013-01-24 07:12:00,
2013-01-24 01:17:00,3.1,-2.4,30.45,NNW,343,2.0,6.0,77,-99.99,,,0.00,1-wire,2013-01-24 07:17:00,
2013-01-24 01:22:00,3.0,-2.4,30.46,NNW,343,4.0,9.0,78,-99.99,,,0.00,1-wire,2013-01-24 07:22:00,
2013-01-24 01:27:00,3.0,-2.3,30.46,NNW,343,4.0,6.0,78,-99.99,,,0.00,1-wire,2013-01-24 07:27:00,
2013-01-24 01:32:00,3.0,-2.5,30.46,NNW,343,3.0,6.0,77,-99.99,,,0.00,1-wire,2013-01-24 07:32:00,
2013-01-24 01:37:00,3.0,-2.6,30.46,NNW,347,4.0,10.0,77,-99.99,,,0.00,1-wire,2013-01-24 07:37:00,
2013-01-24 01:42:00,3.2,-2.3,30.46,NNW,347,1.0,3.0,77,-99.99,,,0.00,1-wire,2013-01-24 07:42:00,
2013-01-24 01:47:00,2.9,-2.5,30.46,NNW,347,3.0,6.0,78,-99.99,,,0.00,1-wire,2013-01-24 07:47:00,
2013-01-24 01:53:00,2.7,-2.7,30.48,NNW,338,5.0,14.0,77,-99.99,,,0.00,1-wire,2013-01-24 07:53:00,
2013-01-24 01:58:00,2.6,-2.7,30.48,NNW,338,5.0,11.0,78,-99.99,,,0.00,1-wire,2013-01-24 07:58:00,
2013-01-24 02:04:00,2.7,-2.4,30.48,NNW,338,3.0,6.0,79,-99.99,,,0.00,1-wire,2013-01-24 08:04:00,
2013-01-24 02:09:00,2.6,-2.5,30.48,NW,325,4.0,6.0,79,-99.99,,,0.00,1-wire,2013-01-24 08:09:00,
2013-01-24 02:14:00,2.5,-2.7,30.48,NW,325,3.0,6.0,78,-99.99,,,0.00,1-wire,2013-01-24 08:14:00,
2013-01-24 02:20:00,2.4,-2.6,30.48,NW,325,3.0,6.0,79,-99.99,,,0.00,1-wire,2013-01-24 08:20:00,
2013-01-24 02:25:00,2.4,-2.7,30.48,NW,325,5.0,11.0,79,-99.99,,,0.00,1-wire,2013-01-24 08:25:00,
2013-01-24 02:31:00,2.2,-2.8,30.48,NW,325,5.0,11.0,79,-99.99,,,0.00,1-wire,2013-01-24 08:31:00,
2013-01-24 02:36:00,2.3,-2.6,30.48,NNW,331,3.0,8.0,80,-99.99,,,0.00,1-wire,2013-01-24 08:36:00,
2013-01-24 02:42:00,2.1,-2.7,30.48,NNW,331,2.0,6.0,80,-99.99,,,0.00,1-wire,2013-01-24 08:42:00,
2013-01-24 02:47:00,2.1,-2.8,30.49,NNW,331,2.0,6.0,80,-99.99,,,0.00,1-wire,2013-01-24 08:47:00,
2013-01-24 02:52:00,2.2,-2.6,30.49,NW,316,2.0,6.0,80,-99.99,,,0.00,1-wire,2013-01-24 08:52:00,
2013-01-24 02:58:00,1.9,-2.7,30.49,NW,316,3.0,6.0,80,-99.99,,,0.00,1-wire,2013-01-24 08:58:00,
2013-01-24 03:03:00,1.7,-2.9,30.49,NW,316,2.0,6.0,81,-99.99,,,0.00,1-wire,2013-01-24 09:03:00,
2013-01-24 03:09:00,1.5,-3.1,30.50,NW,323,2.0,6.0,81,-99.99,,,0.00,1-wire,2013-01-24 09:09:00,
2013-01-24 03:14:00,1.9,-2.7,30.50,NW,323,2.0,6.0,81,-99.99,,,0.00,1-wire,2013-01-24 09:14:00,
2013-01-24 03:19:00,1.7,-2.9,30.50,NW,323,4.0,8.0,80,-99.99,,,0.00,1-wire,2013-01-24 09:19:00,
2013-01-24 03:24:00,1.4,-3.1,30.51,NW,324,3.0,6.0,81,-99.99,,,0.00,1-wire,2013-01-24 09:24:00,
2013-01-24 03:29:00,1.5,-2.9,30.51,NW,324,2.0,3.0,81,-99.99,,,0.00,1-wire,2013-01-24 09:29:00,
2013-01-24 03:34:00,1.4,-2.7,30.52,NW,324,3.0,6.0,82,-99.99,,,0.00,1-wire,2013-01-24 09:34:00,
2013-01-24 03:39:00,1.4,-2.8,30.52,NW,322,2.0,6.0,82,-99.99,,,0.00,1-wire,2013-01-24 09:39:00,
2013-01-24 03:45:00,1.6,-2.8,30.53,NW,322,2.0,6.0,81,-99.99,,,0.00,1-wire,2013-01-24 09:45:00,
2013-01-24 03:50:00,1.3,-3.0,30.53,NW,322,3.0,6.0,81,-99.99,,,0.00,1-wire,2013-01-24 09:50:00,
2013-01-24 03:55:00,1.5,-2.7,30.53,NW,323,3.0,8.0,82,-99.99,,,0.00,1-wire,2013-01-24 09:55:00,
2013-01-24 04:00:00,1.2,-2.9,30.53,NW,323,3.0,6.0,82,-99.99,,,0.00,1-wire,2013-01-24 10:00:00,
2013-01-24 04:05:00,1.1,-3.1,30.53,NW,323,1.0,3.0,82,-99.99,,,0.00,1-wire,2013-01-24 10:05:00,
2013-01-24 04:10:00,1.1,-2.9,30.53,NNW,327,2.0,3.0,83,-99.99,,,0.00,1-wire,2013-01-24 10:10:00,
2013-01-24 04:15:00,0.9,-3.1,30.53,NNW,327,6.0,11.0,83,-99.99,,,0.00,1-wire,2013-01-24 10:15:00,
2013-01-24 04:20:00,0.9,-3.2,30.53,NNW,327,4.0,9.0,82,-99.99,,,0.00,1-wire,2013-01-24 10:20:00,
2013-01-24 04:25:00,0.9,-3.3,30.53,NW,326,7.0,14.0,82,-99.99,,,0.00,1-wire,2013-01-24 10:25:00,
2013-01-24 04:31:00,0.9,-3.2,30.53,NW,326,4.0,8.0,82,-99.99,,,0.00,1-wire,2013-01-24 10:31:00,
2013-01-24 04:36:00,0.9,-3.2,30.53,NW,325,5.0,9.0,82,-99.99,,,0.00,1-wire,2013-01-24 10:36:00,
2013-01-24 04:41:00,1.1,-2.9,30.53,NW,325,4.0,9.0,83,-99.99,,,0.00,1-wire,2013-01-24 10:41:00,
2013-01-24 04:46:00,1.1,-3.1,30.53,NW,325,4.0,10.0,82,-99.99,,,0.00,1-wire,2013-01-24 10:46:00,
2013-01-24 04:51:00,1.1,-3.1,30.54,NNW,335,3.0,8.0,82,-99.99,,,0.00,1-wire,2013-01-24 10:51:00,
2013-01-24 04:56:00,1.1,-3.1,30.55,NNW,335,4.0,8.0,82,-99.99,,,0.00,1-wire,2013-01-24 10:56:00,
2013-01-24 05:02:00,1.2,-2.9,30.55,NNW,335,3.0,6.0,82,-99.99,,,0.00,1-wire,2013-01-24 11:02:00,
2013-01-24 05:07:00,1.1,-3.1,30.55,NNW,329,2.0,6.0,82,-99.99,,,0.00,1-wire,2013-01-24 11:07:00,
2013-01-24 05:12:00,1.2,-2.9,30.56,NNW,329,2.0,6.0,82,-99.99,,,0.00,1-wire,2013-01-24 11:12:00,
2013-01-24 05:17:00,1.1,-3.0,30.55,NNW,329,4.0,8.0,82,-99.99,,,0.00,1-wire,2013-01-24 11:17:00,
2013-01-24 05:22:00,0.8,-3.2,30.55,NNW,331,4.0,6.0,82,-99.99,,,0.00,1-wire,2013-01-24 11:22:00,
2013-01-24 05:28:00,1.2,-2.8,30.56,NNW,331,3.0,8.0,83,-99.99,,,0.00,1-wire,2013-01-24 11:28:00,
2013-01-24 05:33:00,1.3,-2.9,30.56,NNW,331,2.0,6.0,82,-99.99,,,0.00,1-wire,2013-01-24 11:33:00,
2013-01-24 05:39:00,1.1,-3.2,30.55,NNW,328,2.0,6.0,82,-99.99,,,0.00,1-wire,2013-01-24 11:39:00,
2013-01-24 05:44:00,1.1,-3.3,30.55,NNW,328,6.0,11.0,81,-99.99,,,0.00,1-wire,2013-01-24 11:44:00,
2013-01-24 05:49:00,1.4,-2.9,30.56,NNW,328,2.0,3.0,81,-99.99,,,0.00,1-wire,2013-01-24 11:49:00,
2013-01-24 05:55:00,1.3,-3.1,30.57,NNW,331,3.0,8.0,81,-99.99,,,0.00,1-wire,2013-01-24 11:55:00,
2013-01-24 06:00:00,1.4,-3.1,30.57,NNW,331,2.0,6.0,81,-99.99,,,0.00,1-wire,2013-01-24 12:00:00,
2013-01-24 06:06:00,1.1,-3.2,30.56,NNW,337,4.0,8.0,81,-99.99,,,0.00,1-wire,2013-01-24 12:06:00,
2013-01-24 06:11:00,1.0,-3.4,30.56,NNW,337,4.0,6.0,81,-99.99,,,0.00,1-wire,2013-01-24 12:11:00,
2013-01-24 06:17:00,1.2,-3.1,30.56,NNW,337,2.0,3.0,82,-99.99,,,0.00,1-wire,2013-01-24 12:17:00,
2013-01-24 06:22:00,1.1,-3.1,30.56,NNW,334,2.0,3.0,82,-99.99,,,0.00,1-wire,2013-01-24 12:22:00,
2013-01-24 06:27:00,1.1,-3.0,30.57,NNW,334,3.0,6.0,82,-99.99,,,0.00,1-wire,2013-01-24 12:27:00,
2013-01-24 06:32:00,1.2,-2.9,30.57,NNW,334,2.0,3.0,82,-99.99,,,0.00,1-wire,2013-01-24 12:32:00,
2013-01-24 06:37:00,1.6,-2.4,30.57,NNW,330,1.0,3.0,83,-99.99,,,0.00,1-wire,2013-01-24 12:37:00,
2013-01-24 06:42:00,1.5,-2.5,30.57,NNW,330,3.0,6.0,83,-99.99,,,0.00,1-wire,2013-01-24 12:42:00,
2013-01-24 06:47:00,1.1,-3.0,30.57,NNW,330,3.0,6.0,82,-99.99,,,0.00,1-wire,2013-01-24 12:47:00,
2013-01-24 06:52:00,0.9,-3.2,30.57,NNW,338,4.0,8.0,82,-99.99,,,0.00,1-wire,2013-01-24 12:52:00,
2013-01-24 06:57:00,1.0,-2.9,30.57,NNW,338,4.0,6.0,83,-99.99,,,0.00,1-wire,2013-01-24 12:57:00,
2013-01-24 07:03:00,0.9,-2.9,30.58,NNW,338,5.0,8.0,83,-99.99,,,0.00,1-wire,2013-01-24 13:03:00,
2013-01-24 07:08:00,1.0,-2.8,30.58,NNW,344,3.0,6.0,84,-99.99,,,0.00,1-wire,2013-01-24 13:08:00,
2013-01-24 07:13:00,1.1,-2.7,30.58,NNW,344,3.0,6.0,84,-99.99,,,0.00,1-wire,2013-01-24 13:13:00,
2013-01-24 07:18:00,1.0,-2.7,30.58,NNW,344,3.0,6.0,84,-99.99,,,0.00,1-wire,2013-01-24 13:18:00,
2013-01-24 07:23:00,0.8,-3.1,30.58,North,356,5.0,9.0,83,-99.99,,,0.00,1-wire,2013-01-24 13:23:00,
2013-01-24 07:28:00,1.3,-2.4,30.58,North,356,5.0,9.0,84,-99.99,,,0.00,1-wire,2013-01-24 13:28:00,
2013-01-24 07:33:00,1.0,-3.0,30.59,North,356,4.0,6.0,83,-99.99,,,0.00,1-wire,2013-01-24 13:33:00,
2013-01-24 07:38:00,1.4,-2.5,30.59,North,350,3.0,8.0,83,-99.99,,,0.00,1-wire,2013-01-24 13:38:00,
2013-01-24 07:43:00,1.2,-2.7,30.59,North,350,3.0,6.0,83,-99.99,,,0.00,1-wire,2013-01-24 13:43:00,
2013-01-24 07:48:00,1.4,-2.5,30.59,North,350,3.0,6.0,83,-99.99,,,0.00,1-wire,2013-01-24 13:48:00,
2013-01-24 07:53:00,1.8,-2.2,30.59,North,360,3.0,6.0,83,-99.99,,,0.00,1-wire,2013-01-24 13:53:00,
2013-01-24 07:58:00,1.8,-2.1,30.60,North,360,1.0,3.0,83,-99.99,,,0.00,1-wire,2013-01-24 13:58:00,
2013-01-24 08:03:00,1.6,-2.6,30.60,North,360,3.0,6.0,82,-99.99,,,0.00,1-wire,2013-01-24 14:03:00,
2013-01-24 08:08:00,1.9,-2.2,30.60,North,350,3.0,9.0,82,-99.99,,,0.00,1-wire,2013-01-24 14:08:00,
2013-01-24 08:13:00,2.1,-2.2,30.61,North,350,2.0,6.0,82,-99.99,,,0.00,1-wire,2013-01-24 14:13:00,
2013-01-24 08:19:00,2.6,-1.9,30.61,North,350,1.0,3.0,81,-99.99,,,0.00,1-wire,2013-01-24 14:19:00,
2013-01-24 08:24:00,2.0,-2.7,30.61,North,355,4.0,9.0,80,-99.99,,,0.00,1-wire,2013-01-24 14:24:00,
2013-01-24 08:29:00,2.1,-2.5,30.61,North,355,6.0,9.0,81,-99.99,,,0.00,1-wire,2013-01-24 14:29:00,
2013-01-24 08:34:00,2.3,-2.5,30.61,North,355,3.0,8.0,80,-99.99,,,0.00,1-wire,2013-01-24 14:34:00,
2013-01-24 08:39:00,3.0,-1.9,30.61,North,356,2.0,8.0,80,-99.99,,,0.00,1-wire,2013-01-24 14:39:00,
2013-01-24 08:44:00,2.9,-2.0,30.61,North,356,2.0,6.0,80,-99.99,,,0.00,1-wire,2013-01-24 14:44:00,
2013-01-24 08:49:00,3.0,-1.9,30.61,North,356,3.0,9.0,79,-99.99,,,0.00,1-wire,2013-01-24 14:49:00,
2013-01-24 08:54:00,2.7,-2.3,30.61,North,359,6.0,9.0,79,-99.99,,,0.00,1-wire,2013-01-24 14:54:00,
2013-01-24 08:59:00,2.8,-2.1,30.62,North,359,2.0,6.0,79,-99.99,,,0.00,1-wire,2013-01-24 14:59:00,
2013-01-24 09:04:00,3.6,-1.6,30.61,North,359,1.0,3.0,78,-99.99,,,0.00,1-wire,2013-01-24 15:04:00,
2013-01-24 09:09:00,3.1,-2.3,30.61,North,357,4.0,11.0,78,-99.99,,,0.00,1-wire,2013-01-24 15:09:00,
2013-01-24 09:14:00,4.2,-1.1,30.62,North,357,2.0,6.0,78,-99.99,,,0.00,1-wire,2013-01-24 15:14:00,
2013-01-24 09:19:00,3.8,-1.7,30.61,North,357,4.0,6.0,77,-99.99,,,0.00,1-wire,2013-01-24 15:19:00,
2013-01-24 09:25:00,4.2,-1.6,30.61,North,1,3.0,8.0,76,-99.99,,,0.00,1-wire,2013-01-24 15:25:00,
2013-01-24 09:30:00,3.6,-1.9,30.61,North,1,2.0,3.0,77,-99.99,,,0.00,1-wire,2013-01-24 15:30:00,
2013-01-24 09:36:00,4.2,-1.4,30.61,North,7,1.0,6.0,77,-99.99,,,0.00,1-wire,2013-01-24 15:36:00,
2013-01-24 09:41:00,3.3,-2.2,30.61,North,7,6.0,11.0,77,-99.99,,,0.00,1-wire,2013-01-24 15:41:00,
2013-01-24 09:47:00,4.3,-1.6,30.61,North,7,2.0,3.0,76,-99.99,,,0.00,1-wire,2013-01-24 15:47:00,
2013-01-24 09:52:00,4.6,-1.4,30.61,North,7,4.0,11.0,76,-99.99,,,0.00,1-wire,2013-01-24 15:52:00,
2013-01-24 09:57:00,3.3,-2.4,30.61,North,7,5.0,10.0,76,-99.99,,,0.00,1-wire,2013-01-24 15:57:00,
2013-01-24 10:02:00,4.2,-1.3,30.61,North,7,3.0,6.0,77,-99.99,,,0.00,1-wire,2013-01-24 16:02:00,
2013-01-24 10:07:00,4.8,-0.9,30.61,NNE,28,2.0,3.0,77,-99.99,,,0.00,1-wire,2013-01-24 16:07:00,
2013-01-24 10:12:00,5.3,-0.9,30.61,NNE,28,3.0,6.0,75,-99.99,,,0.00,1-wire,2013-01-24 16:12:00,
2013-01-24 10:17:00,6.1,-0.7,30.61,NNE,28,1.0,3.0,73,-99.99,,,0.00,1-wire,2013-01-24 16:17:00,
2013-01-24 10:23:00,6.1,-1.0,30.61,NE,36,3.0,6.0,72,-99.99,,,0.00,1-wire,2013-01-24 16:23:00,
2013-01-24 10:28:00,6.7,-0.1,30.61,NE,36,1.0,3.0,73,-99.99,,,0.00,1-wire,2013-01-24 16:28:00,
2013-01-24 10:34:00,6.4,-1.0,30.61,NE,36,1.0,3.0,71,-99.99,,,0.00,1-wire,2013-01-24 16:34:00,
2013-01-24 10:39:00,6.4,-0.8,30.61,NNE,23,2.0,6.0,72,-99.99,,,0.00,1-wire,2013-01-24 16:39:00,
2013-01-24 10:44:00,6.8,-0.4,30.61,NNE,23,1.0,6.0,72,-99.99,,,0.00,1-wire,2013-01-24 16:44:00,
2013-01-24 10:49:00,6.6,-0.4,30.61,NNE,23,1.0,3.0,72,-99.99,,,0.00,1-wire,2013-01-24 16:49:00,
2013-01-24 10:54:00,7.7,0.6,30.61,NNE,32,1.0,3.0,72,-99.99,,,0.00,1-wire,2013-01-24 16:54:00,
2013-01-24 10:59:00,7.9,0.4,30.60,NNE,32,1.0,3.0,71,-99.99,,,0.00,1-wire,2013-01-24 16:59:00,
2013-01-24 11:04:00,7.4,0.9,30.60,NNE,32,1.0,3.0,74,-99.99,,,0.00,1-wire,2013-01-24 17:04:00,
2013-01-24 11:09:00,7.4,0.4,30.60,NE,51,1.0,6.0,72,-99.99,,,0.00,1-wire,2013-01-24 17:09:00,
2013-01-24 11:14:00,8.3,1.1,30.60,NE,51,1.0,3.0,72,-99.99,,,0.00,1-wire,2013-01-24 17:14:00,
2013-01-24 11:19:00,8.1,0.5,30.60,NE,51,1.0,6.0,71,-99.99,,,0.00,1-wire,2013-01-24 17:19:00,
2013-01-24 11:24:00,8.4,0.8,30.59,NE,36,1.0,3.0,70,-99.99,,,0.00,1-wire,2013-01-24 17:24:00,
2013-01-24 11:29:00,8.7,0.8,30.59,NE,36,1.0,3.0,70,-99.99,,,0.00,1-wire,2013-01-24 17:29:00,
2013-01-24 11:34:00,8.7,0.9,30.59,NE,36,1.0,3.0,70,-99.99,,,0.00,1-wire,2013-01-24 17:34:00,
2013-01-24 11:39:00,9.2,1.6,30.58,NE,49,1.0,5.0,71,-99.99,,,0.00,1-wire,2013-01-24 17:39:00,
2013-01-24 11:44:00,9.3,1.4,30.58,NE,49,1.0,3.0,70,-99.99,,,0.00,1-wire,2013-01-24 17:44:00,
2013-01-24 11:49:00,10.1,1.9,30.58,NE,49,0.0,3.0,69,-99.99,,,0.00,1-wire,2013-01-24 17:49:00,
2013-01-24 11:54:00,10.3,2.1,30.58,NE,48,2.0,3.0,69,-99.99,,,0.00,1-wire,2013-01-24 17:54:00,
2013-01-24 11:59:00,10.5,2.1,30.57,NE,48,0.0,3.0,68,-99.99,,,0.00,1-wire,2013-01-24 17:59:00,
2013-01-24 12:04:00,9.5,1.4,30.57,NE,48,2.0,3.0,69,-99.99,,,0.00,1-wire,2013-01-24 18:04:00,
2013-01-24 12:09:00,10.0,1.9,30.57,East,81,1.0,3.0,69,-99.99,,,0.00,1-wire,2013-01-24 18:09:00,
2013-01-24 12:14:00,10.4,2.6,30.57,East,81,0.0,3.0,70,-99.99,,,0.00,1-wire,2013-01-24 18:14:00,
2013-01-24 12:19:00,10.1,1.6,30.56,East,81,1.0,6.0,68,-99.99,,,0.00,1-wire,2013-01-24 18:19:00,
2013-01-24 12:24:00,10.0,2.1,30.56,NE,49,3.0,6.0,70,-99.99,,,0.00,1-wire,2013-01-24 18:24:00,
2013-01-24 12:29:00,9.8,2.0,30.56,NE,49,2.0,3.0,70,-99.99,,,0.00,1-wire,2013-01-24 18:29:00,
2013-01-24 12:34:00,10.1,1.7,30.56,NE,49,0.0,3.0,68,-99.99,,,0.00,1-wire,2013-01-24 18:34:00,
2013-01-24 12:40:00,10.4,2.0,30.56,NE,38,2.0,6.0,68,-99.99,,,0.00,1-wire,2013-01-24 18:40:00,
2013-01-24 12:45:00,11.4,2.7,30.55,NE,38,1.0,3.0,67,-99.99,,,0.00,1-wire,2013-01-24 18:45:00,
2013-01-24 12:51:00,10.4,2.8,30.55,NE,49,4.0,6.0,71,-99.99,,,0.00,1-wire,2013-01-24 18:51:00,
2013-01-24 12:56:00,10.6,2.5,30.55,NE,49,2.0,3.0,69,-99.99,,,0.00,1-wire,2013-01-24 18:56:00,
2013-01-24 13:02:00,10.3,2.0,30.55,NE,49,2.0,3.0,69,-99.99,,,0.00,1-wire,2013-01-24 19:02:00,
2013-01-24 13:08:00,10.2,2.0,30.54,NNE,16,3.0,6.0,69,-99.99,,,0.00,1-wire,2013-01-24 19:08:00,
2013-01-24 13:13:00,10.4,2.6,30.55,NNE,16,2.0,3.0,70,-99.99,,,0.00,1-wire,2013-01-24 19:13:00,
2013-01-24 13:19:00,10.8,2.6,30.54,NNE,16,2.0,6.0,69,-99.99,,,0.00,1-wire,2013-01-24 19:19:00,
2013-01-24 13:24:00,11.3,3.1,30.53,North,352,2.0,6.0,69,-99.99,,,0.00,1-wire,2013-01-24 19:24:00,
2013-01-24 13:30:00,11.4,3.1,30.53,North,352,2.0,6.0,68,-99.99,,,0.00,1-wire,2013-01-24 19:30:00,
2013-01-24 13:35:00,11.4,3.1,30.53,North,352,1.0,3.0,68,-99.99,,,0.00,1-wire,2013-01-24 19:35:00,
2013-01-24 13:40:00,12.1,3.3,30.53,North,6,1.0,3.0,67,-99.99,,,0.00,1-wire,2013-01-24 19:40:00,
2013-01-24 13:45:00,12.2,3.0,30.53,North,6,0.0,3.0,66,-99.99,,,0.00,1-wire,2013-01-24 19:45:00,
2013-01-24 13:50:00,11.5,2.0,30.52,North,6,0.0,3.0,65,-99.99,,,0.00,1-wire,2013-01-24 19:50:00,
2013-01-24 13:55:00,12.2,2.5,30.51,NNE,16,0.0,0.0,64,-99.99,,,0.00,1-wire,2013-01-24 19:55:00,
2013-01-24 14:00:00,12.5,3.4,30.51,NNE,16,1.0,3.0,66,-99.99,,,0.00,1-wire,2013-01-24 20:00:00,
2013-01-24 14:05:00,12.6,3.2,30.52,NNE,16,1.0,3.0,65,-99.99,,,0.00,1-wire,2013-01-24 20:05:00,
2013-01-24 14:10:00,11.6,2.9,30.52,NNE,29,2.0,3.0,67,-99.99,,,0.00,1-wire,2013-01-24 20:10:00,
2013-01-24 14:15:00,12.1,3.3,30.51,NNE,29,1.0,3.0,67,-99.99,,,0.00,1-wire,2013-01-24 20:15:00,
2013-01-24 14:20:00,12.9,3.8,30.51,NNE,29,2.0,3.0,66,-99.99,,,0.00,1-wire,2013-01-24 20:20:00,
2013-01-24 14:25:00,12.4,2.9,30.51,NNE,29,4.0,6.0,65,-99.99,,,0.00,1-wire,2013-01-24 20:25:00,
2013-01-24 14:30:00,12.4,3.3,30.50,NNE,29,0.0,3.0,66,-99.99,,,0.00,1-wire,2013-01-24 20:30:00,
2013-01-24 14:35:00,13.6,4.6,30.50,NNE,29,1.0,3.0,67,-99.99,,,0.00,1-wire,2013-01-24 20:35:00,
2013-01-24 14:40:00,12.8,3.0,30.50,NNE,28,0.0,3.0,64,-99.99,,,0.00,1-wire,2013-01-24 20:40:00,
2013-01-24 14:45:00,13.6,3.8,30.51,NNE,28,0.0,3.0,64,-99.99,,,0.00,1-wire,2013-01-24 20:45:00,
2013-01-24 14:50:00,13.6,3.6,30.51,NNE,28,0.0,0.0,64,-99.99,,,0.00,1-wire,2013-01-24 20:50:00,
2013-01-24 14:55:00,13.9,2.6,30.51,NNE,30,0.0,0.0,60,-99.99,,,0.00,1-wire,2013-01-24 20:55:00,
2013-01-24 15:00:00,14.3,2.2,30.51,NNE,30,0.0,3.0,58,-99.99,,,0.00,1-wire,2013-01-24 21:00:00,
2013-01-24 15:05:00,14.1,2.9,30.50,NNE,30,1.0,3.0,60,-99.99,,,0.00,1-wire,2013-01-24 21:05:00,
2013-01-24 15:10:00,13.5,3.6,30.52,ESE,114,1.0,3.0,64,-99.99,,,0.00,1-wire,2013-01-24 21:10:00,
2013-01-24 15:15:00,13.4,3.6,30.50,ESE,114,0.0,3.0,64,-99.99,,,0.00,1-wire,2013-01-24 21:15:00,
2013-01-24 15:20:00,13.2,3.7,30.50,ESE,114,1.0,3.0,65,-99.99,,,0.00,1-wire,2013-01-24 21:20:00,
2013-01-24 15:25:00,13.2,3.7,30.50,ESE,107,2.0,7.0,65,-99.99,,,0.00,1-wire,2013-01-24 21:25:00,
2013-01-24 15:30:00,13.0,3.5,30.49,ESE,107,1.0,3.0,65,-99.99,,,0.00,1-wire,2013-01-24 21:30:00,
2013-01-24 15:35:00,13.5,3.6,30.49,ESE,107,2.0,6.0,64,-99.99,,,0.00,1-wire,2013-01-24 21:35:00,
2013-01-24 15:40:00,13.6,3.3,30.48,East,98,1.0,3.0,63,-99.99,,,0.00,1-wire,2013-01-24 21:40:00,
2013-01-24 15:46:00,13.3,3.1,30.48,East,98,1.0,3.0,63,-99.99,,,0.00,1-wire,2013-01-24 21:46:00,
2013-01-24 15:51:00,13.3,2.8,30.48,East,100,1.0,3.0,62,-99.99,,,0.00,1-wire,2013-01-24 21:51:00,
2013-01-24 15:56:00,13.6,2.7,30.48,East,100,0.0,3.0,61,-99.99,,,0.00,1-wire,2013-01-24 21:56:00,
2013-01-24 16:01:00,13.8,3.1,30.48,East,100,0.0,0.0,62,-99.99,,,0.00,1-wire,2013-01-24 22:01:00,
2013-01-24 16:06:00,13.8,3.4,30.48,East,85,0.0,3.0,63,-99.99,,,0.00,1-wire,2013-01-24 22:06:00,
2013-01-24 16:11:00,13.5,3.3,30.48,East,85,1.0,3.0,63,-99.99,,,0.00,1-wire,2013-01-24 22:11:00,
2013-01-24 16:16:00,13.5,3.4,30.48,East,85,0.0,3.0,63,-99.99,,,0.00,1-wire,2013-01-24 22:16:00,
2013-01-24 16:22:00,13.8,4.3,30.47,ESE,118,0.0,3.0,65,-99.99,,,0.00,1-wire,2013-01-24 22:22:00,
2013-01-24 16:27:00,13.7,4.0,30.47,ESE,118,0.0,0.0,65,-99.99,,,0.00,1-wire,2013-01-24 22:27:00,
2013-01-24 16:33:00,13.8,3.9,30.48,ESE,118,0.0,0.0,64,-99.99,,,0.00,1-wire,2013-01-24 22:33:00,
2013-01-24 16:38:00,14.1,4.1,30.48,East,88,0.0,0.0,64,-99.99,,,0.00,1-wire,2013-01-24 22:38:00,
2013-01-24 16:44:00,13.5,3.5,30.48,East,88,0.0,3.0,64,-99.99,,,0.00,1-wire,2013-01-24 22:44:00,
2013-01-24 16:49:00,13.1,2.7,30.46,East,88,0.0,3.0,62,-99.99,,,0.00,1-wire,2013-01-24 22:49:00,
2013-01-24 16:54:00,13.3,3.1,30.46,ESE,116,0.0,3.0,63,-99.99,,,0.00,1-wire,2013-01-24 22:54:00,
2013-01-24 16:59:00,13.5,2.9,30.46,ESE,116,0.0,3.0,62,-99.99,,,0.00,1-wire,2013-01-24 22:59:00,
2013-01-24 17:04:00,13.6,3.1,30.46,ESE,116,0.0,3.0,62,-99.99,,,0.00,1-wire,2013-01-24 23:04:00,
2013-01-24 17:09:00,13.7,4.2,30.46,ESE,108,0.0,0.0,65,-99.99,,,0.00,1-wire,2013-01-24 23:09:00,
2013-01-24 17:14:00,13.4,3.0,30.46,ESE,108,2.0,3.0,63,-99.99,,,0.00,1-wire,2013-01-24 23:14:00,
2013-01-24 17:19:00,13.5,4.2,30.46,ESE,108,1.0,3.0,66,-99.99,,,0.00,1-wire,2013-01-24 23:19:00,
2013-01-24 17:24:00,13.4,4.3,30.45,ENE,75,1.0,3.0,66,-99.99,,,0.00,1-wire,2013-01-24 23:24:00,
2013-01-24 17:29:00,13.6,4.2,30.46,ENE,75,1.0,3.0,65,-99.99,,,0.00,1-wire,2013-01-24 23:29:00,
2013-01-24 17:34:00,13.2,3.8,30.45,ENE,75,1.0,3.0,65,-99.99,,,0.00,1-wire,2013-01-24 23:34:00,
2013-01-24 17:39:00,13.2,3.9,30.45,East,88,0.0,3.0,66,-99.99,,,0.00,1-wire,2013-01-24 23:39:00,
2013-01-24 17:44:00,13.2,4.2,30.44,East,88,2.0,6.0,67,-99.99,,,0.00,1-wire,2013-01-24 23:44:00,
2013-01-24 17:49:00,13.0,3.6,30.44,East,88,2.0,6.0,65,-99.99,,,0.00,1-wire,2013-01-24 23:49:00,
2013-01-24 17:54:00,13.0,4.4,30.43,East,90,1.0,6.0,68,-99.99,,,0.00,1-wire,2013-01-24 23:54:00,
2013-01-24 17:59:00,13.1,4.7,30.43,East,90,1.0,3.0,68,-99.99,,,0.00,1-wire,2013-01-24 23:59:00,
2013-01-24 18:04:00,13.2,4.8,30.43,East,90,1.0,3.0,68,-99.99,,,0.00,1-wire,2013-01-25 00:04:00,
2013-01-24 18:09:00,13.1,4.8,30.42,East,97,2.0,6.0,69,-99.99,,,0.00,1-wire,2013-01-25 00:09:00,
2013-01-24 18:14:00,13.2,5.0,30.42,East,97,1.0,3.0,69,-99.99,,,0.00,1-wire,2013-01-25 00:14:00,
2013-01-24 18:19:00,13.4,5.8,30.41,East,97,1.0,3.0,71,-99.99,,,0.00,1-wire,2013-01-25 00:19:00,
2013-01-24 18:24:00,13.2,4.9,30.42,ESE,108,2.0,6.0,69,-99.99,,,0.00,1-wire,2013-01-25 00:24:00,
2013-01-24 18:29:00,13.2,4.7,30.41,ESE,108,1.0,6.0,68,-99.99,,,0.00,1-wire,2013-01-25 00:29:00,
2013-01-24 18:34:00,13.7,5.6,30.41,ESE,108,0.0,0.0,69,-99.99,,,0.00,1-wire,2013-01-25 00:34:00,
2013-01-24 18:39:00,13.5,5.0,30.41,ESE,109,2.0,3.0,68,-99.99,,,0.00,1-wire,2013-01-25 00:39:00,
2013-01-24 18:44:00,13.6,5.2,30.42,ESE,109,1.0,3.0,69,-99.99,,,0.00,1-wire,2013-01-25 00:44:00,
2013-01-24 18:49:00,13.6,5.0,30.41,ESE,109,0.0,3.0,68,-99.99,,,0.00,1-wire,2013-01-25 00:49:00,
2013-01-24 18:55:00,13.5,5.1,30.40,ESE,107,0.0,3.0,68,-99.99,,,0.00,1-wire,2013-01-25 00:55:00,
2013-01-24 19:00:00,13.4,5.2,30.40,ESE,107,1.0,3.0,69,-99.99,,,0.00,1-wire,2013-01-25 01:00:00,
2013-01-24 19:06:00,13.6,5.0,30.40,ESE,114,1.0,3.0,68,-99.99,,,0.00,1-wire,2013-01-25 01:06:00,
2013-01-24 19:11:00,13.7,5.7,30.40,ESE,114,1.0,3.0,70,-99.99,,,0.00,1-wire,2013-01-25 01:11:00,
2013-01-24 19:17:00,14.1,6.2,30.40,ESE,114,0.0,0.0,70,-99.99,,,0.00,1-wire,2013-01-25 01:17:00,
2013-01-24 19:23:00,14.0,5.5,30.40,ESE,118,1.0,3.0,68,-99.99,,,0.00,1-wire,2013-01-25 01:23:00,
2013-01-24 19:28:00,13.9,5.7,30.40,ESE,118,1.0,3.0,69,-99.99,,,0.00,1-wire,2013-01-25 01:28:00,
2013-01-24 19:34:00,13.9,5.4,30.40,ESE,118,0.0,3.0,68,-99.99,,,0.00,1-wire,2013-01-25 01:34:00,
2013-01-24 19:39:00,14.1,5.8,30.40,ESE,123,1.0,6.0,69,-99.99,,,0.00,1-wire,2013-01-25 01:39:00,
2013-01-24 19:45:00,14.1,5.6,30.40,ESE,123,0.0,3.0,68,-99.99,,,0.00,1-wire,2013-01-25 01:45:00,
2013-01-24 19:50:00,14.0,5.5,30.39,ESE,123,1.0,3.0,68,-99.99,,,0.00,1-wire,2013-01-25 01:50:00,
2013-01-24 19:55:00,14.3,5.7,30.40,ESE,119,0.0,3.0,68,-99.99,,,0.00,1-wire,2013-01-25 01:55:00,
2013-01-24 20:00:00,14.2,5.7,30.40,ESE,119,2.0,3.0,68,-99.99,,,0.00,1-wire,2013-01-25 02:00:00,
2013-01-24 20:05:00,14.2,5.7,30.40,ESE,119,0.0,0.0,68,-99.99,,,0.00,1-wire,2013-01-25 02:05:00,
2013-01-24 20:11:00,14.3,5.9,30.38,SE,125,1.0,3.0,69,-99.99,,,0.00,1-wire,2013-01-25 02:11:00,
2013-01-24 20:16:00,14.7,6.6,30.38,SE,125,0.0,0.0,70,-99.99,,,0.00,1-wire,2013-01-25 02:16:00,
2013-01-24 20:21:00,14.5,6.5,30.38,ESE,122,0.0,3.0,70,-99.99,,,0.00,1-wire,2013-01-25 02:21:00,
2013-01-24 20:26:00,14.8,6.9,30.38,ESE,122,0.0,0.0,70,-99.99,,,0.00,1-wire,2013-01-25 02:26:00,
2013-01-24 20:31:00,14.7,6.7,30.38,ESE,122,0.0,3.0,70,-99.99,,,0.00,1-wire,2013-01-25 02:31:00,
2013-01-24 20:36:00,14.5,6.3,30.38,SE,125,1.0,3.0,69,-99.99,,,0.00,1-wire,2013-01-25 02:36:00,
2013-01-24 20:41:00,15.0,6.8,30.38,SE,125,0.0,0.0,69,-99.99,,,0.00,1-wire,2013-01-25 02:41:00,
2013-01-24 20:46:00,15.0,7.5,30.38,SE,125,0.0,0.0,72,-99.99,,,0.00,1-wire,2013-01-25 02:46:00,
2013-01-24 20:51:00,14.9,6.5,30.38,ESE,117,0.0,3.0,69,-99.99,,,0.00,1-wire,2013-01-25 02:51:00,
2013-01-24 20:56:00,14.6,6.7,30.38,ESE,117,1.0,3.0,70,-99.99,,,0.00,1-wire,2013-01-25 02:56:00,
2013-01-24 21:01:00,15.2,7.4,30.37,ESE,117,0.0,3.0,71,-99.99,,,0.00,1-wire,2013-01-25 03:01:00,
2013-01-24 21:06:00,15.1,6.9,30.36,ESE,119,0.0,3.0,70,-99.99,,,0.00,1-wire,2013-01-25 03:06:00,
2013-01-24 21:11:00,14.8,6.9,30.35,ESE,119,3.0,6.0,70,-99.99,,,0.00,1-wire,2013-01-25 03:11:00,
2013-01-24 21:16:00,15.1,7.4,30.35,ESE,119,0.0,0.0,71,-99.99,,,0.00,1-wire,2013-01-25 03:16:00,
2013-01-24 21:21:00,14.8,7.0,30.34,SE,126,1.0,3.0,70,-99.99,,,0.00,1-wire,2013-01-25 03:21:00,
2013-01-24 21:26:00,15.0,7.5,30.33,SE,126,1.0,3.0,72,-99.99,,,0.00,1-wire,2013-01-25 03:26:00,
2013-01-24 21:31:00,15.0,7.6,30.33,SE,126,1.0,3.0,72,-99.99,,,0.00,1-wire,2013-01-25 03:31:00,
2013-01-24 21:36:00,14.8,7.2,30.33,SE,126,1.0,3.0,71,-99.99,,,0.00,1-wire,2013-01-25 03:36:00,
2013-01-24 21:41:00,15.0,7.7,30.33,SE,126,1.0,6.0,72,-99.99,,,0.00,1-wire,2013-01-25 03:41:00,
2013-01-24 21:46:00,15.2,8.1,30.33,SE,126,1.0,3.0,73,-99.99,,,0.00,1-wire,2013-01-25 03:46:00,
2013-01-24 21:51:00,14.7,7.5,30.33,SE,127,2.0,6.0,72,-99.99,,,0.00,1-wire,2013-01-25 03:51:00,
2013-01-24 21:56:00,14.7,7.4,30.31,SE,127,3.0,6.0,72,-99.99,,,0.00,1-wire,2013-01-25 03:56:00,
2013-01-24 22:01:00,14.8,7.7,30.31,SE,127,5.0,9.0,73,-99.99,,,0.00,1-wire,2013-01-25 04:01:00,
2013-01-24 22:06:00,15.0,8.1,30.31,ESE,123,2.0,6.0,73,-99.99,,,0.00,1-wire,2013-01-25 04:06:00,
2013-01-24 22:11:00,15.2,8.5,30.31,ESE,123,0.0,3.0,74,-99.99,,,0.00,1-wire,2013-01-25 04:11:00,
2013-01-24 22:16:00,15.4,8.5,30.31,ESE,123,2.0,3.0,74,-99.99,,,0.00,1-wire,2013-01-25 04:16:00,
2013-01-24 22:22:00,15.7,8.9,30.31,SE,126,0.0,0.0,74,-99.99,,,0.00,1-wire,2013-01-25 04:22:00,
2013-01-24 22:27:00,15.9,9.1,30.31,SE,126,0.0,3.0,74,-99.99,,,0.00,1-wire,2013-01-25 04:27:00,
2013-01-24 22:33:00,16.2,9.4,30.31,SE,126,0.0,3.0,74,-99.99,,,0.00,1-wire,2013-01-25 04:33:00,
2013-01-24 22:38:00,16.2,9.5,30.31,SE,128,0.0,0.0,74,-99.99,,,0.00,1-wire,2013-01-25 04:38:00,
2013-01-24 22:44:00,16.4,9.8,30.32,SE,128,0.0,3.0,75,-99.99,,,0.00,1-wire,2013-01-25 04:44:00,
2013-01-24 22:50:00,16.7,9.7,30.31,SE,128,0.0,0.0,73,-99.99,,,0.00,1-wire,2013-01-25 04:50:00,
2013-01-24 22:55:00,16.8,10.1,30.31,SE,127,0.0,0.0,74,-99.99,,,0.00,1-wire,2013-01-25 04:55:00,
2013-01-24 23:02:00,16.9,10.2,30.31,SE,127,0.0,0.0,74,-99.99,,,0.00,1-wire,2013-01-25 05:02:00,
2013-01-24 23:03:00,16.9,10.1,30.31,SE,127,0.0,3.0,74,-99.99,,,0.00,1-wire,2013-01-25 05:03:00,
2013-01-24 23:04:00,16.8,10.0,30.31,SE,127,0.0,0.0,74,-99.99,,,0.00,1-wire,2013-01-25 05:04:00,
2013-01-24 23:05:00,17.1,10.3,30.31,SE,127,0.0,0.0,74,-99.99,,,0.00,1-wire,2013-01-25 05:05:00,
2013-01-24 23:10:00,17.0,10.3,30.32,SE,124,1.0,3.0,75,-99.99,,,0.00,1-wire,2013-01-25 05:10:00,
2013-01-24 23:15:00,17.0,10.5,30.33,SE,124,0.0,3.0,75,-99.99,,,0.00,1-wire,2013-01-25 05:15:00,
2013-01-24 23:20:00,17.0,10.5,30.31,SE,124,1.0,3.0,75,-99.99,,,0.00,1-wire,2013-01-25 05:20:00,
2013-01-24 23:25:00,17.0,10.5,30.31,SE,125,0.0,3.0,75,-99.99,,,0.00,1-wire,2013-01-25 05:25:00,
2013-01-24 23:30:00,17.0,10.5,30.30,SE,125,2.0,5.0,75,-99.99,,,0.00,1-wire,2013-01-25 05:30:00,
2013-01-24 23:35:00,17.0,10.7,30.29,SE,125,2.0,6.0,76,-99.99,,,0.00,1-wire,2013-01-25 05:35:00,
2013-01-24 23:40:00,17.3,10.9,30.29,SE,127,0.0,3.0,76,-99.99,,,0.00,1-wire,2013-01-25 05:40:00,
2013-01-24 23:45:00,17.0,10.6,30.29,SE,127,2.0,3.0,75,-99.99,,,0.00,1-wire,2013-01-25 05:45:00,
2013-01-24 23:50:00,17.3,10.9,30.28,SE,127,1.0,3.0,75,-99.99,,,0.00,1-wire,2013-01-25 05:50:00,
2013-01-24 23:55:00,17.3,10.9,30.29,SE,128,3.0,6.0,76,-99.99,,,0.00,1-wire,2013-01-25 05:55:00,